Regional Weather Roundup
Issued by NWS

Home | Current Version | Previous Version | Text Only | Print | Product List | Glossary Off
Versions: 1 2 3 4 5 6 7 8 9 10 11 12 13 14 15 16 17 18 19 20 21 22 23 24 25 26 27 28 29 30 31 32 33 34 35 36 37 38 39 40 41 42 43 44 45 46 47 48 49 50

152
ASUS43 KFSD 041510
RWRSD

WEATHER ROUNDUP FOR SOUTH DAKOTA
NATIONAL WEATHER SERVICE SIOUX FALLS SD
1000 AM CDT WED MAY 04 2016

NOTE: "FAIR" INDICATES FEW OR NO CLOUDS BELOW 12,000 FEET WITH NO
SIGNIFICANT WEATHER AND/OR OBSTRUCTIONS TO VISIBILITY.


SDZ001>005-009-010-012>017-041600-
NORTHWEST AND NORTH CENTRAL SOUTH DAKOTA

CITY           SKY/WX    TMP DP  RH WIND       PRES   REMARKS
BUFFALO          N/A     62  45  53 S3        30.06F
FAITH            N/A     59  38  45 S12       30.12F
MOBRIDGE       SUNNY     56  38  50 SW5       30.11F
$$

SDZ012>016-024>037-041>051-057-063-072>074-041600-
SOUTHWEST AND SOUTH CENTRAL SOUTH DAKOTA

CITY           SKY/WX    TMP DP  RH WIND       PRES   REMARKS
RAPID CTY ARPT SUNNY     63  42  46 SW3       30.16F
PIERRE         SUNNY     56  36  47 CALM      30.13F
CUSTER         SUNNY     60  32  34 VRB5      30.24S
ELLSWORTH AFB  SUNNY     64  43  45 SW6       30.15F
PHILIP         SUNNY     57  43  59 VRB5      30.14F
PINE RIDGE       N/A     57  44  62 VRB3      30.18F
WINNER         FAIR      57  37  47 NW5       30.15S
$$

SDZ004>011-016>023-039-040-041600-
NORTHEAST SOUTH DAKOTA

CITY           SKY/WX    TMP DP  RH WIND       PRES   REMARKS
ABERDEEN       SUNNY     56  35  45 N9        30.13S
WATERTOWN      SUNNY     56  37  49 NW7       30.09S
BROOKINGS      SUNNY     54  35  48 N5        30.08S
SISSETON         N/A     55  37  50 N13       30.09R
$$

SDZ017-020-022-023-036>040-048>070-041600-
SOUTHEAST SOUTH DAKOTA

CITY           SKY/WX    TMP DP  RH WIND       PRES   REMARKS
SIOUX FALLS    SUNNY     56  37  49 NE8       30.09R
HURON          SUNNY     54  37  52 N9        30.12S
CHAMBERLAIN    SUNNY     56  37  48 N6        30.14S
MITCHELL       SUNNY     53  40  61 N7        30.13R
YANKTON        SUNNY     54  39  58 NW8       30.10R
$$

ABBREVIATIONS USED IN REMARKS
   TC - TEMPERATURE IN CELSIUS
  WCI - WIND CHILL INDEX
   HX - HEAT INDEX
  VSB - VISIBILITY





USA.gov is the U.S. government's official web portal to all federal, state and local government web resources and services.